Volver al catálogo

STARLINK-37632

ActivoComunicacionesVLEO
NORAD 69374·PAYLOAD·🇺🇸 United States

Lanzado Jun 4, 2026 desde Cape Canaveral Space Force Station

Loading…

Próximos Pases (próximas 24 horas)

TLE

ActualizadoSource: CelesTrak SupGP

Época: Sep 14, 2026, 23:19 UTC

1 69374C 26123X   26257.97201389 -.00061966  00000+0 -18306-2 0  2570
2 69374  53.1576 167.6733 0001307  85.5955 116.5625 15.34425471    12

Sigue STARLINK-37632 en tiempo real con AllMySat

Download on the App Store